BEL9PW LEAL-EBBR

Flight info

Callsign BEL9PW
Flight time 2h 5m
Altitude 36000
Route MITOS DCT ARGOR DCT EBROX DCT OLOXO DCT OKABI DCT TOU DCT ADABI DCT BOKNO UN858 VANAD UN874 BAMES UT191 PODEM DCT VEKIN Z173 ARVOL
Aircraft A320/M-DE3FGHIJ1LORVWY/H

Departure

Time 2026-05-06 05:16
Airport Alicante-Elche Miguel Hernández Airport (LEAL)

Arrival

Time 2026-05-06 07:22
Airport Brussels Airport (EBBR)
Time Latitude Longitude Altitude Speed Heading
2026-05-06 04:52 38.28567 -0.55585 98 ft 0 kts
2026-05-06 05:06 38.28549 -0.55588 97 ft 4 kts 360°
2026-05-06 05:06 38.28523 -0.55584 96 ft 4 kts 338°
2026-05-06 05:06 38.28500 -0.55567 97 ft 4 kts 311°
2026-05-06 05:06 38.28488 -0.55540 98 ft 2 kts 281°
2026-05-06 05:07 38.28488 -0.55539 97 ft 0 kts 281°
2026-05-06 05:09 38.28490 -0.55549 99 ft 3 kts 282°
2026-05-06 05:09 38.28502 -0.55611 99 ft 10 kts 281°
2026-05-06 05:09 38.28514 -0.55698 100 ft 9 kts 279°
2026-05-06 05:09 38.28526 -0.55780 100 ft 12 kts 280°
2026-05-06 05:10 38.28541 -0.55889 98 ft 12 kts 280°
2026-05-06 05:10 38.28556 -0.55981 99 ft 9 kts 287°
2026-05-06 05:10 38.28580 -0.56076 100 ft 15 kts 281°
2026-05-06 05:10 38.28597 -0.56200 104 ft 13 kts 279°
2026-05-06 05:11 38.28611 -0.56303 107 ft 13 kts 280°
2026-05-06 05:11 38.28623 -0.56391 111 ft 7 kts 280°
2026-05-06 05:11 38.28629 -0.56432 113 ft 3 kts 280°
2026-05-06 05:11 38.28635 -0.56479 114 ft 9 kts 279°
2026-05-06 05:12 38.28641 -0.56527 116 ft 9 kts 279°
2026-05-06 05:12 38.28586 -0.56602 118 ft 10 kts 192°
2026-05-06 05:12 38.28542 -0.56612 114 ft 10 kts 190°
2026-05-06 05:12 38.28516 -0.56677 120 ft 12 kts 275°
2026-05-06 05:13 38.28531 -0.56789 123 ft 11 kts 280°
2026-05-06 05:13 38.28545 -0.56890 126 ft 14 kts 280°
2026-05-06 05:13 38.28562 -0.57006 134 ft 11 kts 280°
2026-05-06 05:13 38.28578 -0.57120 139 ft 16 kts 280°
2026-05-06 05:14 38.28595 -0.57246 145 ft 12 kts 280°
2026-05-06 05:14 38.28606 -0.57327 148 ft 7 kts 279°
2026-05-06 05:14 38.28604 -0.57397 150 ft 7 kts 245°
2026-05-06 05:14 38.28527 -0.57440 150 ft 16 kts 192°
2026-05-06 05:15 38.28459 -0.57437 152 ft 8 kts 154°
2026-05-06 05:15 38.28440 -0.57402 151 ft 0 kts 106°
2026-05-06 05:15 38.28438 -0.57397 151 ft 4 kts 106°
2026-05-06 05:15 38.28399 -0.57123 143 ft 69 kts 99°
2026-05-06 05:16 38.28273 -0.56226 115 ft 134 kts 100°
2026-05-06 05:16 38.28078 -0.54846 196 ft 171 kts 99°
2026-05-06 05:16 38.27846 -0.53415 966 ft 163 kts 100°
2026-05-06 05:16 38.27610 -0.52006 1645 ft 163 kts 101°
2026-05-06 05:17 38.27404 -0.50562 2157 ft 174 kts 90°
2026-05-06 05:17 38.27709 -0.48997 2444 ft 196 kts 60°
2026-05-06 05:17 38.28487 -0.47467 2726 ft 221 kts 57°
2026-05-06 05:17 38.29385 -0.45750 3135 ft 245 kts 56°
2026-05-06 05:18 38.30362 -0.43884 3760 ft 258 kts 56°
2026-05-06 05:18 38.31370 -0.41953 4585 ft 265 kts 56°
2026-05-06 05:18 38.32369 -0.39959 5395 ft 270 kts 63°
2026-05-06 05:18 38.33122 -0.37741 6228 ft 275 kts 68°
2026-05-06 05:19 38.33833 -0.35461 6990 ft 280 kts 69°
2026-05-06 05:19 38.34544 -0.33120 7727 ft 287 kts 69°
2026-05-06 05:19 38.35271 -0.30722 8443 ft 294 kts 69°
2026-05-06 05:19 38.36016 -0.28267 9168 ft 300 kts 69°
2026-05-06 05:20 38.36804 -0.25771 9870 ft 307 kts 68°
2026-05-06 05:20 38.37649 -0.23213 10326 ft 323 kts 67°
2026-05-06 05:20 38.38565 -0.20487 10547 ft 346 kts 67°
2026-05-06 05:20 38.39541 -0.17596 10916 ft 361 kts 66°
2026-05-06 05:21 38.40544 -0.14625 11537 ft 368 kts 66°
2026-05-06 05:21 38.41558 -0.11604 12206 ft 373 kts 66°
2026-05-06 05:21 38.42583 -0.08543 12877 ft 378 kts 65°
2026-05-06 05:21 38.43887 -0.05626 13516 ft 381 kts 52°
2026-05-06 05:22 38.45671 -0.03121 14121 ft 383 kts 38°
2026-05-06 05:22 38.47842 -0.01179 14741 ft 381 kts 25°
2026-05-06 05:22 38.50292 0.00109 15346 ft 380 kts 12°
2026-05-06 05:22 38.52877 0.00859 15923 ft 382 kts
2026-05-06 05:23 38.55482 0.01586 16533 ft 385 kts
2026-05-06 05:23 38.58116 0.02335 17135 ft 388 kts
2026-05-06 05:23 38.63436 0.03859 18297 ft 395 kts 10°
2026-05-06 05:24 38.66137 0.04631 18824 ft 399 kts
2026-05-06 05:24 38.68853 0.05403 19324 ft 402 kts
2026-05-06 05:24 38.71598 0.06183 19837 ft 406 kts
2026-05-06 05:24 38.74329 0.06955 20349 ft 409 kts
2026-05-06 05:25 38.77119 0.07744 20866 ft 412 kts
2026-05-06 05:25 38.79971 0.08553 21379 ft 415 kts
2026-05-06 05:25 38.82766 0.09349 21881 ft 419 kts
2026-05-06 05:25 38.85621 0.10166 22371 ft 422 kts
2026-05-06 05:26 38.88496 0.10991 22856 ft 425 kts
2026-05-06 05:26 38.91400 0.11826 23341 ft 428 kts
2026-05-06 05:26 38.94319 0.12664 23748 ft 431 kts
2026-05-06 05:26 38.97254 0.13508 24122 ft 434 kts
2026-05-06 05:27 39.00215 0.14358 24506 ft 436 kts
2026-05-06 05:27 39.03187 0.15213 24872 ft 439 kts
2026-05-06 05:27 39.06175 0.16072 25233 ft 441 kts
2026-05-06 05:27 39.09183 0.16934 25587 ft 443 kts
2026-05-06 05:28 39.12201 0.17801 25933 ft 446 kts
2026-05-06 05:28 39.15239 0.18677 26262 ft 449 kts
2026-05-06 05:28 39.18295 0.19558 26586 ft 452 kts
2026-05-06 05:28 39.21369 0.20445 26916 ft 454 kts
2026-05-06 05:29 39.24460 0.21335 27249 ft 456 kts
2026-05-06 05:29 39.27565 0.22230 27571 ft 458 kts
2026-05-06 05:29 39.30685 0.23133 27895 ft 460 kts
2026-05-06 05:29 39.33818 0.24043 28210 ft 463 kts
2026-05-06 05:30 39.36967 0.24957 28530 ft 465 kts
2026-05-06 05:30 39.40139 0.25873 28772 ft 468 kts
2026-05-06 05:30 39.43328 0.26797 29052 ft 471 kts
2026-05-06 05:30 39.46489 0.27719 29328 ft 473 kts
2026-05-06 05:31 39.49706 0.28657 29596 ft 475 kts
2026-05-06 05:31 39.52911 0.29813 29861 ft 483 kts 14°
2026-05-06 05:31 39.56018 0.31578 30098 ft 492 kts 23°
2026-05-06 05:31 39.58990 0.33850 30323 ft 497 kts 26°
2026-05-06 05:32 39.61958 0.36186 30495 ft 499 kts 26°
2026-05-06 05:32 39.64925 0.38520 30679 ft 501 kts 26°
2026-05-06 05:32 39.67918 0.40872 30861 ft 503 kts 26°
2026-05-06 05:32 39.70909 0.43222 31122 ft 502 kts 26°
2026-05-06 05:33 39.73896 0.45571 31402 ft 502 kts 26°
2026-05-06 05:33 39.76881 0.47920 31670 ft 501 kts 26°
2026-05-06 05:33 39.79863 0.50266 31943 ft 501 kts 26°
2026-05-06 05:33 39.82844 0.52614 32239 ft 501 kts 26°
2026-05-06 05:34 39.85826 0.54968 32482 ft 501 kts 26°
2026-05-06 05:34 39.88807 0.57325 32740 ft 501 kts 26°
2026-05-06 05:34 39.91792 0.59689 33008 ft 501 kts 26°
2026-05-06 05:34 39.94771 0.62050 33275 ft 501 kts 26°
2026-05-06 05:35 39.97703 0.64376 33537 ft 501 kts 26°
2026-05-06 05:35 40.00684 0.66743 33803 ft 500 kts 26°
2026-05-06 05:35 40.03659 0.69105 34078 ft 500 kts 26°
2026-05-06 05:35 40.06622 0.71459 34298 ft 500 kts 26°
2026-05-06 05:36 40.09591 0.73820 34545 ft 499 kts 26°
2026-05-06 05:36 40.12558 0.76182 34791 ft 498 kts 26°
2026-05-06 05:36 40.15512 0.78539 34994 ft 498 kts 26°
2026-05-06 05:36 40.18464 0.80902 35211 ft 497 kts 26°
2026-05-06 05:37 40.21412 0.83265 35432 ft 496 kts 26°
2026-05-06 05:37 40.24355 0.85622 35644 ft 496 kts 26°
2026-05-06 05:37 40.27295 0.87973 35882 ft 495 kts 26°
2026-05-06 05:37 40.30230 0.90325 35956 ft 494 kts 26°
2026-05-06 05:38 40.36075 0.95030 35964 ft 492 kts 26°
2026-05-06 05:38 40.41915 0.99729 35966 ft 492 kts 26°
2026-05-06 05:39 40.47761 1.04432 35987 ft 492 kts 26°
2026-05-06 05:39 40.53549 1.09106 35962 ft 491 kts 27°
2026-05-06 05:40 40.59357 1.13826 35961 ft 490 kts 27°
2026-05-06 05:40 40.65168 1.18541 35943 ft 491 kts 27°
2026-05-06 05:41 40.71214 1.22537 35942 ft 481 kts 12°
2026-05-06 05:41 40.77662 1.24256 35945 ft 469 kts 360°
2026-05-06 05:42 40.84152 1.25279 35942 ft 470 kts 360°
2026-05-06 05:42 40.90646 1.26308 35978 ft 470 kts
2026-05-06 05:43 40.97103 1.27350 35971 ft 470 kts
2026-05-06 05:43 41.03599 1.28401 35964 ft 470 kts
2026-05-06 05:44 41.10096 1.29432 35960 ft 470 kts
2026-05-06 05:44 41.16593 1.30466 35975 ft 470 kts
2026-05-06 05:45 41.23088 1.31504 35969 ft 470 kts
2026-05-06 05:45 41.29581 1.32554 35971 ft 470 kts
2026-05-06 05:46 41.36075 1.33611 36000 ft 470 kts
2026-05-06 05:46 41.42571 1.34663 35991 ft 470 kts
2026-05-06 05:47 41.49069 1.35719 35992 ft 471 kts
2026-05-06 05:47 41.55573 1.36776 36017 ft 471 kts
2026-05-06 05:48 41.62086 1.37831 36006 ft 472 kts
2026-05-06 05:48 41.68605 1.38891 36009 ft 472 kts
2026-05-06 05:49 41.75128 1.39954 36015 ft 472 kts
2026-05-06 05:49 41.81650 1.41034 36024 ft 472 kts
2026-05-06 05:50 41.88166 1.42097 36038 ft 472 kts
2026-05-06 05:50 41.94687 1.43166 36039 ft 472 kts
2026-05-06 05:51 42.01210 1.44236 36050 ft 472 kts
2026-05-06 05:51 42.07689 1.45315 36036 ft 472 kts
2026-05-06 05:52 42.14211 1.46398 36020 ft 472 kts
2026-05-06 05:52 42.20739 1.47472 35999 ft 471 kts
2026-05-06 05:53 42.27234 1.48552 35990 ft 470 kts
2026-05-06 05:53 42.33726 1.49640 35987 ft 470 kts
2026-05-06 05:54 42.40223 1.50726 36012 ft 470 kts
2026-05-06 05:54 42.46618 1.50784 36002 ft 458 kts 347°
2026-05-06 05:55 42.52943 1.49745 35988 ft 458 kts 347°
2026-05-06 05:55 42.59272 1.48732 35987 ft 458 kts 347°
2026-05-06 05:56 42.65606 1.47714 36003 ft 458 kts 347°
2026-05-06 05:56 42.71945 1.46704 35995 ft 458 kts 347°
2026-05-06 05:57 42.78278 1.45689 35978 ft 458 kts 347°
2026-05-06 05:57 42.84601 1.44664 35970 ft 457 kts 347°
2026-05-06 05:58 42.90928 1.43633 35974 ft 458 kts 347°
2026-05-06 05:58 42.97223 1.42619 35976 ft 458 kts 347°
2026-05-06 05:59 43.03552 1.41590 36004 ft 458 kts 347°
2026-05-06 05:59 43.09884 1.40551 35995 ft 458 kts 347°
2026-05-06 06:00 43.15192 1.39685 35988 ft 458 kts 347°
2026-05-06 06:00 43.21480 1.38661 35981 ft 458 kts 347°
2026-05-06 06:01 43.27810 1.37630 35982 ft 458 kts 348°
2026-05-06 06:01 43.34138 1.36594 35978 ft 458 kts 348°
2026-05-06 06:02 43.40468 1.35550 35969 ft 458 kts 348°
2026-05-06 06:02 43.46795 1.34505 35979 ft 458 kts 348°
2026-05-06 06:03 43.53117 1.33457 35971 ft 457 kts 348°
2026-05-06 06:03 43.59440 1.32413 35969 ft 457 kts 348°
2026-05-06 06:04 43.65752 1.31371 36001 ft 457 kts 349°
2026-05-06 06:04 43.72043 1.30155 35992 ft 455 kts 346°
2026-05-06 06:05 43.78228 1.28514 35981 ft 454 kts 344°
2026-05-06 06:05 43.84426 1.26775 35985 ft 455 kts 345°
2026-05-06 06:06 43.90638 1.25125 35969 ft 455 kts 346°
2026-05-06 06:06 43.96873 1.23531 35957 ft 455 kts 346°
2026-05-06 06:07 44.03100 1.21939 35963 ft 455 kts 346°
2026-05-06 06:07 44.09321 1.20322 35958 ft 454 kts 346°
2026-05-06 06:08 44.15537 1.18694 35956 ft 454 kts 346°
2026-05-06 06:08 44.21744 1.17062 35953 ft 454 kts 346°
2026-05-06 06:09 44.27915 1.15447 35955 ft 454 kts 346°
2026-05-06 06:09 44.34123 1.13825 35952 ft 454 kts 346°
2026-05-06 06:10 44.40324 1.12191 35950 ft 453 kts 346°
2026-05-06 06:10 44.46515 1.10553 35959 ft 453 kts 346°
2026-05-06 06:11 44.52706 1.08915 35957 ft 453 kts 346°
2026-05-06 06:11 44.58906 1.07270 35942 ft 453 kts 346°
2026-05-06 06:12 44.65100 1.05621 35937 ft 453 kts 347°
2026-05-06 06:12 44.71298 1.03980 35927 ft 453 kts 347°
2026-05-06 06:13 44.77456 1.02344 35925 ft 453 kts 347°
2026-05-06 06:13 44.83661 1.00681 35923 ft 453 kts 347°
2026-05-06 06:14 44.89859 0.99019 35922 ft 453 kts 347°
2026-05-06 06:14 44.96060 0.97354 35924 ft 453 kts 347°
2026-05-06 06:15 45.02266 0.95691 35928 ft 453 kts 347°
2026-05-06 06:15 45.08471 0.94021 35921 ft 453 kts 347°
2026-05-06 06:16 45.14636 0.92352 35923 ft 453 kts 347°
2026-05-06 06:16 45.20836 0.90667 35928 ft 453 kts 347°
2026-05-06 06:17 45.27035 0.88980 35928 ft 453 kts 347°
2026-05-06 06:17 45.33224 0.87300 35922 ft 453 kts 347°
2026-05-06 06:18 45.39426 0.85609 35920 ft 453 kts 347°
2026-05-06 06:18 45.45616 0.83913 35916 ft 453 kts 348°
2026-05-06 06:19 45.51814 0.82219 35912 ft 453 kts 347°
2026-05-06 06:19 45.57974 0.80527 35914 ft 454 kts 347°
2026-05-06 06:20 45.64173 0.78821 35904 ft 454 kts 348°
2026-05-06 06:20 45.70376 0.77119 35904 ft 453 kts 347°
2026-05-06 06:21 45.76563 0.75413 35908 ft 453 kts 348°
2026-05-06 06:21 45.82749 0.73702 35904 ft 452 kts 347°
2026-05-06 06:22 45.88922 0.71984 35899 ft 452 kts 348°
2026-05-06 06:22 45.95102 0.70268 35897 ft 452 kts 347°
2026-05-06 06:23 46.01282 0.68542 35892 ft 452 kts 348°
2026-05-06 06:23 46.07458 0.66817 35890 ft 451 kts 348°
2026-05-06 06:24 46.13616 0.65089 35883 ft 451 kts 347°
2026-05-06 06:24 46.19784 0.63353 35883 ft 451 kts 349°
2026-05-06 06:25 46.25951 0.61628 35877 ft 451 kts 348°
2026-05-06 06:26 46.35203 0.59026 35877 ft 451 kts 348°
2026-05-06 06:26 46.41374 0.57275 35883 ft 451 kts 348°
2026-05-06 06:27 46.47533 0.55532 35875 ft 450 kts 349°
2026-05-06 06:27 46.53692 0.53878 35871 ft 450 kts 354°
2026-05-06 06:28 46.59926 0.54317 35876 ft 450 kts 12°
2026-05-06 06:28 46.66001 0.56335 35875 ft 451 kts 12°
2026-05-06 06:29 46.72116 0.58357 35880 ft 451 kts 12°
2026-05-06 06:29 46.78235 0.60367 35877 ft 451 kts 12°
2026-05-06 06:30 46.84358 0.62388 35873 ft 451 kts 12°
2026-05-06 06:30 46.90471 0.64412 35878 ft 450 kts 13°
2026-05-06 06:31 46.96581 0.66443 35878 ft 450 kts 13°
2026-05-06 06:31 47.02690 0.68487 35871 ft 450 kts 12°
2026-05-06 06:32 47.08886 0.69603 35869 ft 449 kts
2026-05-06 06:32 47.15123 0.70239 35880 ft 449 kts
2026-05-06 06:33 47.21355 0.70892 35887 ft 449 kts
2026-05-06 06:33 47.27589 0.71543 35894 ft 448 kts
2026-05-06 06:34 47.33815 0.72194 35902 ft 448 kts
2026-05-06 06:34 47.40036 0.72849 35902 ft 448 kts
2026-05-06 06:35 47.46243 0.73511 35908 ft 447 kts
2026-05-06 06:35 47.52327 0.75206 35904 ft 446 kts 18°
2026-05-06 06:36 47.58208 0.78102 35899 ft 445 kts 18°
2026-05-06 06:36 47.64053 0.80984 35898 ft 445 kts 18°
2026-05-06 06:37 47.69922 0.83878 35897 ft 444 kts 18°
2026-05-06 06:37 47.75798 0.86777 35853 ft 446 kts 18°
2026-05-06 06:38 47.81688 0.89700 35850 ft 447 kts 18°
2026-05-06 06:38 47.87587 0.92651 35856 ft 447 kts 18°
2026-05-06 06:39 47.93481 0.95633 35867 ft 447 kts 18°
2026-05-06 06:39 47.99367 0.98621 35874 ft 447 kts 18°
2026-05-06 06:40 48.05259 1.01610 35884 ft 447 kts 18°
2026-05-06 06:40 48.11144 1.04596 35883 ft 446 kts 19°
2026-05-06 06:41 48.17015 1.07595 35882 ft 446 kts 19°
2026-05-06 06:41 48.22881 1.10600 35882 ft 445 kts 19°
2026-05-06 06:42 48.28707 1.13575 35889 ft 444 kts 19°
2026-05-06 06:42 48.34552 1.16553 35895 ft 443 kts 19°
2026-05-06 06:43 48.40390 1.19542 35893 ft 443 kts 19°
2026-05-06 06:43 48.46224 1.22538 35884 ft 443 kts 19°
2026-05-06 06:44 48.52050 1.25532 35889 ft 442 kts 19°
2026-05-06 06:44 48.57880 1.28529 35881 ft 442 kts 19°
2026-05-06 06:45 48.63721 1.31468 35868 ft 443 kts 18°
2026-05-06 06:45 48.68587 1.33898 35870 ft 443 kts 18°
2026-05-06 06:46 48.74444 1.36840 35882 ft 444 kts 18°
2026-05-06 06:46 48.80301 1.39809 35884 ft 444 kts 18°
2026-05-06 06:47 48.86159 1.42798 35892 ft 444 kts 18°
2026-05-06 06:47 48.92021 1.45787 35895 ft 444 kts 18°
2026-05-06 06:48 48.97919 1.48622 35895 ft 444 kts 12°
2026-05-06 06:48 49.04024 1.50111 35897 ft 444 kts
2026-05-06 06:49 49.10136 1.51537 35894 ft 444 kts
2026-05-06 06:49 49.16217 1.52965 35888 ft 445 kts
2026-05-06 06:50 49.22328 1.54572 35885 ft 445 kts 16°
2026-05-06 06:50 49.27930 1.58474 35886 ft 443 kts 35°
2026-05-06 06:51 49.32568 1.64673 35880 ft 443 kts 44°
2026-05-06 06:51 49.37038 1.71213 35878 ft 444 kts 44°
2026-05-06 06:52 49.41514 1.77770 35878 ft 444 kts 44°
2026-05-06 06:52 49.45952 1.84289 35871 ft 445 kts 44°
2026-05-06 06:53 49.50458 1.90943 35869 ft 446 kts 44°
2026-05-06 06:53 49.54908 1.97516 35873 ft 447 kts 44°
2026-05-06 06:54 49.59387 2.04154 35878 ft 447 kts 44°
2026-05-06 06:54 49.63861 2.10814 35880 ft 447 kts 44°
2026-05-06 06:55 49.68331 2.17482 35881 ft 447 kts 44°
2026-05-06 06:55 49.72812 2.24156 35884 ft 447 kts 44°
2026-05-06 06:56 49.77282 2.30857 35877 ft 447 kts 45°
2026-05-06 06:56 49.81740 2.37570 35874 ft 448 kts 45°
2026-05-06 06:57 49.86177 2.44263 35875 ft 448 kts 45°
2026-05-06 06:57 49.90642 2.51014 35878 ft 448 kts 44°
2026-05-06 06:58 49.95110 2.57770 35882 ft 448 kts 45°
2026-05-06 06:58 49.99570 2.64538 35880 ft 449 kts 45°
2026-05-06 06:59 50.04031 2.71330 35880 ft 449 kts 45°
2026-05-06 06:59 50.08496 2.78148 35874 ft 449 kts 45°
2026-05-06 06:59 50.10731 2.81571 35736 ft 451 kts 45°
2026-05-06 07:00 50.12960 2.84994 35124 ft 452 kts 45°
2026-05-06 07:00 50.15209 2.88452 34260 ft 454 kts 45°
2026-05-06 07:00 50.17466 2.91920 33294 ft 455 kts 45°
2026-05-06 07:00 50.19703 2.95363 32671 ft 448 kts 45°
2026-05-06 07:01 50.21900 2.98752 32095 ft 441 kts 46°
2026-05-06 07:01 50.24067 3.02098 31509 ft 435 kts 46°
2026-05-06 07:01 50.26206 3.05404 30946 ft 430 kts 46°
2026-05-06 07:01 50.28314 3.08663 30385 ft 425 kts 46°
2026-05-06 07:02 50.30403 3.11894 29815 ft 420 kts 46°
2026-05-06 07:02 50.32469 3.15096 29225 ft 415 kts 46°
2026-05-06 07:02 50.34504 3.18259 28703 ft 409 kts 46°
2026-05-06 07:02 50.36505 3.21378 28175 ft 404 kts 46°
2026-05-06 07:03 50.38481 3.24465 27664 ft 399 kts 46°
2026-05-06 07:03 50.40438 3.27518 27154 ft 394 kts 46°
2026-05-06 07:03 50.42371 3.30533 26678 ft 390 kts 46°
2026-05-06 07:03 50.44281 3.33513 26202 ft 385 kts 46°
2026-05-06 07:04 50.46172 3.36465 25747 ft 381 kts 46°
2026-05-06 07:04 50.48038 3.39385 25304 ft 378 kts 45°
2026-05-06 07:04 50.49890 3.42295 24861 ft 374 kts 45°
2026-05-06 07:04 50.51719 3.45178 24429 ft 371 kts 45°
2026-05-06 07:05 50.53512 3.48001 24003 ft 368 kts 45°
2026-05-06 07:05 50.55441 3.50631 23568 ft 365 kts 36°
2026-05-06 07:05 50.57523 3.52907 23093 ft 362 kts 35°
2026-05-06 07:05 50.59578 3.55149 22646 ft 358 kts 34°
2026-05-06 07:06 50.61613 3.57379 22221 ft 355 kts 34°
2026-05-06 07:06 50.63631 3.59596 21787 ft 352 kts 34°
2026-05-06 07:06 50.65631 3.61798 21363 ft 349 kts 34°
2026-05-06 07:06 50.67616 3.63990 20930 ft 347 kts 34°
2026-05-06 07:07 50.69592 3.66174 20477 ft 346 kts 34°
2026-05-06 07:07 50.71561 3.68349 20054 ft 345 kts 34°
2026-05-06 07:07 50.73524 3.70521 19612 ft 344 kts 34°
2026-05-06 07:07 50.75488 3.72697 19176 ft 344 kts 33°
2026-05-06 07:08 50.77450 3.74874 18723 ft 344 kts 34°
2026-05-06 07:08 50.79383 3.77026 18297 ft 344 kts 34°
2026-05-06 07:08 50.81337 3.79214 17825 ft 343 kts 34°
2026-05-06 07:08 50.83281 3.81390 17376 ft 342 kts 34°
2026-05-06 07:09 50.85219 3.83559 16942 ft 340 kts 34°
2026-05-06 07:09 50.87063 3.85883 16515 ft 339 kts 44°
2026-05-06 07:09 50.88597 3.88707 16094 ft 338 kts 54°
2026-05-06 07:09 50.89845 3.91863 15670 ft 337 kts 57°
2026-05-06 07:10 50.91060 3.95011 15250 ft 335 kts 57°
2026-05-06 07:10 50.92269 3.98156 14816 ft 333 kts 59°
2026-05-06 07:10 50.93226 4.01496 14397 ft 332 kts 68°
2026-05-06 07:10 50.94009 4.04930 13988 ft 330 kts 68°
2026-05-06 07:11 50.94781 4.08309 13558 ft 328 kts 68°
2026-05-06 07:11 50.95556 4.11699 13119 ft 326 kts 68°
2026-05-06 07:11 50.96324 4.15050 12692 ft 322 kts 68°
2026-05-06 07:11 50.97087 4.18381 12275 ft 319 kts 69°
2026-05-06 07:12 50.97840 4.21683 11855 ft 316 kts 68°
2026-05-06 07:12 50.98585 4.24952 11437 ft 314 kts 68°
2026-05-06 07:12 50.99324 4.28205 11022 ft 311 kts 69°
2026-05-06 07:12 51.00046 4.31388 10602 ft 299 kts 69°
2026-05-06 07:13 51.00731 4.34421 10211 ft 286 kts 69°
2026-05-06 07:13 51.01400 4.37381 10081 ft 285 kts 69°
2026-05-06 07:13 51.02071 4.40354 9969 ft 285 kts 68°
2026-05-06 07:13 51.02738 4.43319 9845 ft 285 kts 69°
2026-05-06 07:14 51.03408 4.46306 9288 ft 286 kts 70°
2026-05-06 07:14 51.04066 4.49240 8809 ft 279 kts 68°
2026-05-06 07:14 51.04721 4.52157 8358 ft 280 kts 69°
2026-05-06 07:14 51.05375 4.55077 7923 ft 279 kts 69°
2026-05-06 07:15 51.06015 4.57944 7383 ft 271 kts 69°
2026-05-06 07:15 51.06641 4.60748 6859 ft 267 kts 69°
2026-05-06 07:15 51.07261 4.63521 6378 ft 263 kts 69°
2026-05-06 07:15 51.07854 4.66181 6046 ft 247 kts 70°
2026-05-06 07:16 51.08078 4.68810 5896 ft 243 kts 95°
2026-05-06 07:16 51.07498 4.71341 5773 ft 249 kts 124°
2026-05-06 07:16 51.06178 4.73166 5264 ft 262 kts 153°
2026-05-06 07:16 51.04486 4.74152 4770 ft 260 kts 159°
2026-05-06 07:17 51.02787 4.75105 4251 ft 257 kts 158°
2026-05-06 07:17 51.01138 4.76047 4016 ft 246 kts 157°
2026-05-06 07:17 50.99498 4.76721 3657 ft 246 kts 174°
2026-05-06 07:17 50.97820 4.76516 3467 ft 239 kts 194°
2026-05-06 07:18 50.96336 4.75509 3290 ft 227 kts 213°
2026-05-06 07:18 50.95172 4.73910 3105 ft 216 kts 232°
2026-05-06 07:18 50.94394 4.71933 2829 ft 207 kts 250°
2026-05-06 07:18 50.93912 4.69850 2537 ft 196 kts 253°
2026-05-06 07:19 50.93463 4.67893 2306 ft 181 kts 253°
2026-05-06 07:19 50.93048 4.66084 2047 ft 169 kts 255°
2026-05-06 07:19 50.92660 4.64391 1822 ft 158 kts 255°
2026-05-06 07:19 50.92292 4.62784 1607 ft 152 kts 256°
2026-05-06 07:20 50.91935 4.61223 1402 ft 149 kts 256°
2026-05-06 07:20 50.91586 4.59701 1196 ft 148 kts 255°
2026-05-06 07:20 50.91232 4.58159 983 ft 146 kts 255°
2026-05-06 07:20 50.90892 4.56681 785 ft 143 kts 255°
2026-05-06 07:21 50.90554 4.55210 591 ft 142 kts 255°
2026-05-06 07:21 50.90218 4.53750 405 ft 139 kts 253°
2026-05-06 07:21 50.89896 4.52328 240 ft 132 kts 253°
2026-05-06 07:21 50.89612 4.51083 174 ft 97 kts 251°
2026-05-06 07:22 50.89483 4.50529 175 ft 14 kts 249°
2026-05-06 07:22 50.89483 4.50389 175 ft 13 kts 285°
2026-05-06 07:22 50.89501 4.50245 173 ft 11 kts 279°
2026-05-06 07:22 50.89506 4.50192 172 ft 3 kts 279°
2026-05-06 07:23 50.89510 4.50155 172 ft 4 kts 279°
2026-05-06 07:23 50.89515 4.50105 171 ft 5 kts 279°
2026-05-06 07:23 50.89522 4.50044 170 ft 6 kts 279°
2026-05-06 07:23 50.89530 4.49977 169 ft 6 kts 281°
2026-05-06 07:24 50.89529 4.49904 168 ft 7 kts 254°
2026-05-06 07:24 50.89514 4.49831 168 ft 8 kts 249°
2026-05-06 07:24 50.89491 4.49742 168 ft 10 kts 249°
2026-05-06 07:24 50.89466 4.49632 168 ft 12 kts 250°
2026-05-06 07:25 50.89457 4.49493 165 ft 15 kts 295°
2026-05-06 07:25 50.89522 4.49351 163 ft 13 kts 307°
2026-05-06 07:25 50.89554 4.49283 159 ft 0 kts 306°
2026-05-06 07:26 50.89556 4.49279 159 ft 3 kts 307°
2026-05-06 07:26 50.89583 4.49222 156 ft 10 kts 307°
2026-05-06 07:26 50.89650 4.49151 152 ft 15 kts
2026-05-06 07:26 50.89768 4.49196 145 ft 19 kts 14°
2026-05-06 07:27 50.89894 4.49247 138 ft 17 kts 14°
2026-05-06 07:27 50.90006 4.49293 132 ft 16 kts 13°
2026-05-06 07:27 50.90109 4.49334 131 ft 15 kts 14°
2026-05-06 07:27 50.90208 4.49374 128 ft 14 kts 14°
2026-05-06 07:28 50.90299 4.49406 124 ft 14 kts 356°
2026-05-06 07:28 50.90386 4.49323 124 ft 16 kts 333°
2026-05-06 07:28 50.90590 4.49174 121 ft 13 kts 336°
2026-05-06 07:29 50.90642 4.49070 121 ft 14 kts 256°